Find Starlink 37277

NORAD ID: 68751 Int'l Des: 2026-082 Owner: SPXS Country: US Constellation: starlink operational
LEOCIRCULARRETROGRADE

Current View

Loading 3D Globe...

About Starlink 37277

Description loading...

Upcoming Passes

Passes for default location (London). Set your location on the main map for personalized predictions.

Altitude History

Loading altitude history...

Two-Line Element Set

1 68751U 26082Z 26150.15345012 .00091613 00000-0 16665-2 0 9996
2 68751 97.2841 13.8952 0002021 86.0266 274.1217 15.49189972 6938
Epoch: May 30, 2026 • Age: 32 hours

Current Status

Altitude 427.0 km
Velocity 7.66 km/s
Sub-Earth Point 57.38°N, 149.57°E
Launch Date Apr 15, 2026
Age 0.1 years
Type internet

Technical Details

Classification Payload
Mass 575.00 kg
Dry Mass 530.00 kg
Total Mass 575.00 kg
Length 0.30 m
Diameter 4.10 m
Span 29.00 m
Shape Box + pan
Manufacturer SPXS
Bus Type Starlink V2MO
Phase Status In Orbit
Owner/State SPXS/US

Most Searched